Time,TemperatureF,DewpointF,PressureIn,WindDirection,WindDirectionDegrees,WindSpeedMPH,WindSpeedGustMPH,Humidity,HourlyPrecipIn,Conditions,Clouds,dailyrainin,SoftwareType,DateUTC
2013-04-04 00:00:00,37.1,17.2,30.29,West,269,5.0,10.0,44,0.00,,---,0.00,VWS V14.01,2013-04-04 04:00:00,
2013-04-04 00:05:00,37.1,17.7,30.30,WSW,254,7.0,10.0,45,0.00,,---,0.00,VWS V14.01,2013-04-04 04:05:00,
2013-04-04 00:10:00,36.9,16.5,30.29,West,276,8.0,10.0,43,0.00,,---,0.00,VWS V14.01,2013-04-04 04:10:00,
2013-04-04 00:15:00,36.8,15.9,30.29,SSW,192,5.0,11.0,42,0.00,,---,0.00,VWS V14.01,2013-04-04 04:15:00,
2013-04-04 00:20:00,36.9,16.5,30.30,West,277,7.0,11.0,43,0.00,,---,0.00,VWS V14.01,2013-04-04 04:20:00,
2013-04-04 00:25:00,37.0,17.6,30.30,WNW,295,5.0,11.0,45,0.00,,---,0.00,VWS V14.01,2013-04-04 04:25:00,
2013-04-04 00:30:00,37.1,17.7,30.31,WNW,291,6.0,6.0,45,0.00,,---,0.00,VWS V14.01,2013-04-04 04:30:00,
2013-04-04 00:35:00,36.7,18.9,30.31,SW,219,4.0,8.0,48,0.00,,---,0.00,VWS V14.01,2013-04-04 04:35:00,
2013-04-04 00:40:00,36.3,20.4,30.31,West,263,3.0,8.0,52,0.00,,---,0.00,VWS V14.01,2013-04-04 04:40:00,
2013-04-04 00:45:00,36.1,19.3,30.32,West,261,2.0,8.0,50,0.00,,---,0.00,VWS V14.01,2013-04-04 04:45:00,
2013-04-04 00:50:00,36.2,15.9,30.32,SW,220,7.0,8.0,43,0.00,,---,0.00,VWS V14.01,2013-04-04 04:50:00,
2013-04-04 00:55:00,36.2,16.4,30.32,WSW,254,6.0,9.0,44,0.00,,---,0.00,VWS V14.01,2013-04-04 04:55:00,
2013-04-04 01:00:00,36.2,17.4,30.32,WNW,285,4.0,9.0,46,0.00,,---,0.00,VWS V14.01,2013-04-04 05:00:00,
2013-04-04 01:05:00,36.1,17.8,30.33,WNW,288,3.0,6.0,47,0.00,,---,0.00,VWS V14.01,2013-04-04 05:05:00,
2013-04-04 01:10:00,35.8,19.0,30.33,WSW,243,4.0,6.0,50,0.00,,---,0.00,VWS V14.01,2013-04-04 05:10:00,
2013-04-04 01:15:00,35.7,20.7,30.33,West,263,6.0,8.0,54,0.00,,---,0.00,VWS V14.01,2013-04-04 05:15:00,
2013-04-04 01:20:00,35.6,20.2,30.33,West,281,6.0,9.0,53,0.00,,---,0.00,VWS V14.01,2013-04-04 05:20:00,
2013-04-04 01:25:00,35.6,19.3,30.33,NW,309,4.0,9.0,51,0.00,,---,0.00,VWS V14.01,2013-04-04 05:25:00,
2013-04-04 01:30:00,35.6,18.8,30.33,West,272,6.0,8.0,50,0.00,,---,0.00,VWS V14.01,2013-04-04 05:30:00,
2013-04-04 01:35:00,35.5,18.2,30.33,West,281,6.0,9.0,49,0.00,,---,0.00,VWS V14.01,2013-04-04 05:35:00,
2013-04-04 01:40:00,35.3,18.1,30.33,West,276,7.0,11.0,49,0.00,,---,0.00,VWS V14.01,2013-04-04 05:40:00,
2013-04-04 01:45:00,35.3,19.0,30.34,West,271,4.0,11.0,51,0.00,,---,0.00,VWS V14.01,2013-04-04 05:45:00,
2013-04-04 01:50:00,35.4,19.1,30.34,West,276,6.0,11.0,51,0.00,,---,0.00,VWS V14.01,2013-04-04 05:50:00,
2013-04-04 01:55:00,35.7,16.5,30.34,WNW,290,12.0,14.0,45,0.00,,---,0.00,VWS V14.01,2013-04-04 05:55:00,
2013-04-04 02:00:00,35.6,15.3,30.34,WNW,301,6.0,9.0,43,0.00,,---,0.00,VWS V14.01,2013-04-04 06:00:00,
2013-04-04 02:05:00,35.4,15.7,30.34,WNW,290,9.0,15.0,44,0.00,,---,0.00,VWS V14.01,2013-04-04 06:05:00,
2013-04-04 02:10:00,35.4,15.1,30.34,WNW,291,6.0,15.0,43,0.00,,---,0.00,VWS V14.01,2013-04-04 06:10:00,
2013-04-04 02:15:00,35.2,15.5,30.34,West,281,7.0,15.0,44,0.00,,---,0.00,VWS V14.01,2013-04-04 06:15:00,
2013-04-04 02:20:00,35.2,17.0,30.34,South,175,5.0,15.0,47,0.00,,---,0.00,VWS V14.01,2013-04-04 06:20:00,
2013-04-04 02:25:00,35.3,18.1,30.34,WNW,288,5.0,15.0,49,0.00,,---,0.00,VWS V14.01,2013-04-04 06:25:00,
2013-04-04 02:30:00,35.0,18.7,30.34,WSW,240,7.0,7.0,51,0.00,,---,0.00,VWS V14.01,2013-04-04 06:30:00,
2013-04-04 02:35:00,34.5,18.7,30.34,WSW,255,3.0,7.0,52,0.00,,---,0.00,VWS V14.01,2013-04-04 06:35:00,
2013-04-04 02:40:00,34.1,18.3,30.34,West,281,1.0,7.0,52,0.00,,---,0.00,VWS V14.01,2013-04-04 06:40:00,
2013-04-04 02:45:00,33.9,17.7,30.34,WNW,297,5.0,7.0,51,0.00,,---,0.00,VWS V14.01,2013-04-04 06:45:00,
2013-04-04 02:50:00,33.8,17.6,30.34,West,273,6.0,8.0,51,0.00,,---,0.00,VWS V14.01,2013-04-04 06:50:00,
2013-04-04 02:55:00,33.7,17.5,30.34,WNW,283,6.0,8.0,51,0.00,,---,0.00,VWS V14.01,2013-04-04 06:55:00,
2013-04-04 03:00:00,33.8,17.6,30.34,WNW,290,4.0,5.0,51,0.00,,---,0.00,VWS V14.01,2013-04-04 07:00:00,
2013-04-04 03:06:00,33.8,18.0,30.33,WNW,300,6.0,7.0,52,0.00,,---,0.00,VWS V14.01,2013-04-04 07:06:00,
2013-04-04 03:11:00,33.7,17.5,30.33,West,280,4.0,9.0,51,0.00,,---,0.00,VWS V14.01,2013-04-04 07:11:00,
2013-04-04 03:15:00,33.6,17.9,30.33,West,271,4.0,9.0,52,0.00,,---,0.00,VWS V14.01,2013-04-04 07:15:00,
2013-04-04 03:20:00,33.6,18.3,30.33,West,264,2.0,9.0,53,0.00,,---,0.00,VWS V14.01,2013-04-04 07:20:00,
2013-04-04 03:26:00,33.5,19.1,30.33,NW,311,2.0,9.0,55,0.00,,---,0.00,VWS V14.01,2013-04-04 07:26:00,
2013-04-04 03:31:00,33.3,19.7,30.32,WNW,283,6.0,6.0,57,0.00,,---,0.00,VWS V14.01,2013-04-04 07:31:00,
2013-04-04 03:36:00,33.1,20.4,30.33,West,274,4.0,7.0,59,0.00,,---,0.00,VWS V14.01,2013-04-04 07:36:00,
2013-04-04 03:41:00,33.1,20.4,30.33,West,265,1.0,7.0,59,0.00,,---,0.00,VWS V14.01,2013-04-04 07:41:00,
2013-04-04 03:46:00,33.1,20.7,30.33,West,266,4.0,7.0,60,0.00,,---,0.00,VWS V14.01,2013-04-04 07:46:00,
2013-04-04 03:51:00,33.1,20.7,30.33,WNW,283,3.0,7.0,60,0.00,,---,0.00,VWS V14.01,2013-04-04 07:51:00,
2013-04-04 03:56:00,33.0,21.4,30.33,West,280,3.0,7.0,62,0.00,,---,0.00,VWS V14.01,2013-04-04 07:56:00,
2013-04-04 04:01:00,32.9,21.3,30.34,WSW,256,3.0,5.0,62,0.00,,---,0.00,VWS V14.01,2013-04-04 08:01:00,
2013-04-04 04:06:00,32.9,21.7,30.34,WSW,242,4.0,6.0,63,0.00,,---,0.00,VWS V14.01,2013-04-04 08:06:00,
2013-04-04 04:11:00,32.8,21.6,30.34,West,276,5.0,7.0,63,0.00,,---,0.00,VWS V14.01,2013-04-04 08:11:00,
2013-04-04 04:16:00,32.7,21.9,30.34,WSW,257,9.0,9.0,64,0.00,,---,0.00,VWS V14.01,2013-04-04 08:16:00,
2013-04-04 04:21:00,32.8,22.0,30.35,WSW,254,5.0,9.0,64,0.00,,---,0.00,VWS V14.01,2013-04-04 08:21:00,
2013-04-04 04:26:00,32.9,21.7,30.35,NW,306,3.0,9.0,63,0.00,,---,0.00,VWS V14.01,2013-04-04 08:26:00,
2013-04-04 04:31:00,32.9,22.1,30.35,WNW,285,4.0,6.0,64,0.00,,---,0.00,VWS V14.01,2013-04-04 08:31:00,
2013-04-04 04:37:00,32.8,22.3,30.35,West,275,5.0,6.0,65,0.00,,---,0.00,VWS V14.01,2013-04-04 08:37:00,
2013-04-04 04:42:00,32.8,22.3,30.35,West,277,4.0,6.0,65,0.00,,---,0.00,VWS V14.01,2013-04-04 08:42:00,
2013-04-04 04:47:00,32.8,22.0,30.35,WSW,257,4.0,6.0,64,0.00,,---,0.00,VWS V14.01,2013-04-04 08:47:00,
2013-04-04 04:52:00,33.0,21.4,30.35,SW,228,4.0,8.0,62,0.00,,---,0.00,VWS V14.01,2013-04-04 08:52:00,
2013-04-04 04:57:00,33.2,20.4,30.35,NNW,343,2.0,8.0,59,0.00,,---,0.00,VWS V14.01,2013-04-04 08:57:00,
2013-04-04 05:02:00,33.4,20.6,30.35,WSW,240,3.0,6.0,59,0.00,,---,0.00,VWS V14.01,2013-04-04 09:02:00,
2013-04-04 05:07:00,32.9,22.1,30.35,West,265,6.0,6.0,64,0.00,,---,0.00,VWS V14.01,2013-04-04 09:07:00,
2013-04-04 05:12:00,32.5,22.1,30.35,West,274,4.0,8.0,65,0.00,,---,0.00,VWS V14.01,2013-04-04 09:12:00,
2013-04-04 05:17:00,32.4,22.3,30.36,WSW,241,4.0,8.0,66,0.00,,---,0.00,VWS V14.01,2013-04-04 09:17:00,
2013-04-04 05:22:00,32.2,21.8,30.36,West,266,5.0,8.0,65,0.00,,---,0.00,VWS V14.01,2013-04-04 09:22:00,
2013-04-04 05:27:00,32.0,21.6,30.36,West,280,6.0,8.0,65,0.00,,---,0.00,VWS V14.01,2013-04-04 09:27:00,
2013-04-04 05:32:00,31.9,21.9,30.36,West,271,2.0,7.0,66,0.00,,---,0.00,VWS V14.01,2013-04-04 09:32:00,
2013-04-04 05:37:00,31.8,22.5,30.36,West,263,4.0,7.0,68,0.00,,---,0.00,VWS V14.01,2013-04-04 09:37:00,
2013-04-04 05:42:00,31.8,22.1,30.36,West,272,3.0,7.0,67,0.00,,---,0.00,VWS V14.01,2013-04-04 09:42:00,
2013-04-04 05:47:00,31.8,21.8,30.36,WNW,290,4.0,7.0,66,0.00,,---,0.00,VWS V14.01,2013-04-04 09:47:00,
2013-04-04 05:52:00,31.8,22.1,30.37,WSW,248,5.0,7.0,67,0.00,,---,0.00,VWS V14.01,2013-04-04 09:52:00,
2013-04-04 05:57:00,31.7,21.7,30.37,West,273,4.0,7.0,66,0.00,,---,0.00,VWS V14.01,2013-04-04 09:57:00,
2013-04-04 06:02:00,31.6,21.6,30.37,West,264,5.0,7.0,66,0.00,,---,0.00,VWS V14.01,2013-04-04 10:02:00,
2013-04-04 06:07:00,31.5,21.8,30.38,WSW,248,6.0,7.0,67,0.00,,---,0.00,VWS V14.01,2013-04-04 10:07:00,
2013-04-04 06:12:00,31.3,21.6,30.38,West,260,5.0,7.0,67,0.00,,---,0.00,VWS V14.01,2013-04-04 10:12:00,
2013-04-04 06:17:00,31.2,21.5,30.38,West,278,6.0,7.0,67,0.00,,---,0.00,VWS V14.01,2013-04-04 10:17:00,
2013-04-04 06:22:00,31.1,21.1,30.38,WSW,249,7.0,9.0,66,0.00,,---,0.00,VWS V14.01,2013-04-04 10:22:00,
2013-04-04 06:28:00,31.0,21.0,30.39,West,259,4.0,9.0,66,0.00,,---,0.00,VWS V14.01,2013-04-04 10:28:00,
2013-04-04 06:33:00,31.0,21.0,30.39,WSW,252,6.0,6.0,66,0.00,,---,0.00,VWS V14.01,2013-04-04 10:33:00,
2013-04-04 06:38:00,30.9,21.2,30.39,West,275,3.0,6.0,67,0.00,,---,0.00,VWS V14.01,2013-04-04 10:38:00,
2013-04-04 06:43:00,31.0,21.7,30.39,West,273,4.0,8.0,68,0.00,,---,0.00,VWS V14.01,2013-04-04 10:43:00,
2013-04-04 06:48:00,31.1,21.8,30.39,West,273,3.0,8.0,68,0.00,,---,0.00,VWS V14.01,2013-04-04 10:48:00,
2013-04-04 06:53:00,31.3,22.0,30.39,WNW,300,5.0,8.0,68,0.00,,---,0.00,VWS V14.01,2013-04-04 10:53:00,
2013-04-04 06:58:00,31.5,22.2,30.39,West,268,5.0,8.0,68,0.00,,---,0.00,VWS V14.01,2013-04-04 10:58:00,
2013-04-04 07:03:00,31.9,22.5,30.39,WNW,303,2.0,5.0,68,0.00,,---,0.00,VWS V14.01,2013-04-04 11:03:00,
2013-04-04 07:08:00,32.5,23.1,30.39,NNE,25,5.0,7.0,68,0.00,,---,0.00,VWS V14.01,2013-04-04 11:08:00,
2013-04-04 07:13:00,33.1,22.3,30.40,NW,321,3.0,9.0,64,0.00,,---,0.00,VWS V14.01,2013-04-04 11:13:00,
2013-04-04 07:18:00,33.5,21.9,30.40,West,272,5.0,9.0,62,0.00,,---,0.00,VWS V14.01,2013-04-04 11:18:00,
2013-04-04 07:23:00,33.8,21.0,30.39,SSW,203,7.0,9.0,59,0.00,,---,0.00,VWS V14.01,2013-04-04 11:23:00,
2013-04-04 07:28:00,34.0,21.2,30.40,WSW,255,3.0,9.0,59,0.00,,---,0.00,VWS V14.01,2013-04-04 11:28:00,
2013-04-04 07:33:00,34.3,21.1,30.40,West,263,6.0,9.0,58,0.00,,---,0.00,VWS V14.01,2013-04-04 11:33:00,
2013-04-04 07:38:00,34.5,21.3,30.40,NW,304,2.0,9.0,58,0.00,,---,0.00,VWS V14.01,2013-04-04 11:38:00,
2013-04-04 07:43:00,34.7,21.0,30.41,SW,233,5.0,9.0,57,0.00,,---,0.00,VWS V14.01,2013-04-04 11:43:00,
2013-04-04 07:48:00,34.7,20.6,30.41,West,277,9.0,10.0,56,0.00,,---,0.00,VWS V14.01,2013-04-04 11:48:00,
2013-04-04 07:53:00,34.8,20.3,30.41,WNW,293,5.0,10.0,55,0.00,,---,0.00,VWS V14.01,2013-04-04 11:53:00,
2013-04-04 07:58:00,35.0,20.0,30.41,WSW,252,5.0,10.0,54,0.00,,---,0.00,VWS V14.01,2013-04-04 11:58:00,
2013-04-04 08:03:00,35.3,19.0,30.41,NW,322,4.0,8.0,51,0.00,,---,0.00,VWS V14.01,2013-04-04 12:03:00,
2013-04-04 08:08:00,35.6,19.3,30.41,West,281,5.0,9.0,51,0.00,,---,0.00,VWS V14.01,2013-04-04 12:08:00,
2013-04-04 08:13:00,35.7,18.4,30.41,WSW,239,7.0,9.0,49,0.00,,---,0.00,VWS V14.01,2013-04-04 12:13:00,
2013-04-04 08:18:00,35.6,17.9,30.41,NW,316,6.0,12.0,48,0.00,,---,0.00,VWS V14.01,2013-04-04 12:18:00,
2013-04-04 08:23:00,35.8,18.0,30.40,NW,326,6.0,12.0,48,0.00,,---,0.00,VWS V14.01,2013-04-04 12:23:00,
2013-04-04 08:28:00,36.1,18.3,30.41,SE,124,1.0,12.0,48,0.00,,---,0.00,VWS V14.01,2013-04-04 12:28:00,
2013-04-04 08:33:00,36.7,18.4,30.40,SSW,206,3.0,7.0,47,0.00,,---,0.00,VWS V14.01,2013-04-04 12:33:00,
2013-04-04 08:38:00,36.9,18.1,30.40,West,268,3.0,13.0,46,0.00,,---,0.00,VWS V14.01,2013-04-04 12:38:00,
2013-04-04 08:44:00,37.2,17.8,30.40,WSW,242,4.0,13.0,45,0.00,,---,0.00,VWS V14.01,2013-04-04 12:44:00,
2013-04-04 08:49:00,37.6,17.1,30.40,WNW,288,3.0,13.0,43,0.00,,---,0.00,VWS V14.01,2013-04-04 12:49:00,
2013-04-04 08:54:00,37.7,17.8,30.40,WNW,297,6.0,13.0,44,0.00,,---,0.00,VWS V14.01,2013-04-04 12:54:00,
2013-04-04 08:59:00,38.2,18.2,30.40,West,269,1.0,13.0,44,0.00,,---,0.00,VWS V14.01,2013-04-04 12:59:00,
2013-04-04 09:04:00,39.0,17.9,30.40,WNW,296,2.0,7.0,42,0.00,,---,0.00,VWS V14.01,2013-04-04 13:04:00,
2013-04-04 09:09:00,38.9,17.8,30.39,South,177,7.0,10.0,42,0.00,,---,0.00,VWS V14.01,2013-04-04 13:09:00,
2013-04-04 09:14:00,39.1,17.4,30.40,WSW,245,2.0,10.0,41,0.00,,---,0.00,VWS V14.01,2013-04-04 13:14:00,
2013-04-04 09:19:00,39.3,17.6,30.39,NNW,340,7.0,10.0,41,0.00,,---,0.00,VWS V14.01,2013-04-04 13:19:00,
2013-04-04 09:24:00,39.6,17.9,30.40,West,268,3.0,10.0,41,0.00,,---,0.00,VWS V14.01,2013-04-04 13:24:00,
2013-04-04 09:29:00,39.6,17.3,30.40,NW,326,3.0,10.0,40,0.00,,---,0.00,VWS V14.01,2013-04-04 13:29:00,
2013-04-04 09:34:00,39.5,17.8,30.40,NNE,27,3.0,7.0,41,0.00,,---,0.00,VWS V14.01,2013-04-04 13:34:00,
2013-04-04 09:39:00,39.7,18.5,30.40,North,8,1.0,7.0,42,0.00,,---,0.00,VWS V14.01,2013-04-04 13:39:00,
2013-04-04 09:45:00,39.9,18.7,30.39,NW,319,1.0,7.0,42,0.00,,---,0.00,VWS V14.01,2013-04-04 13:45:00,
2013-04-04 09:50:00,40.5,18.7,30.39,WNW,289,2.0,7.0,41,0.00,,---,0.00,VWS V14.01,2013-04-04 13:50:00,
2013-04-04 09:55:00,40.9,18.5,30.39,NW,316,3.0,7.0,40,0.00,,---,0.00,VWS V14.01,2013-04-04 13:55:00,
2013-04-04 10:00:00,40.8,17.8,30.39,WNW,293,1.0,7.0,39,0.00,,---,0.00,VWS V14.01,2013-04-04 14:00:00,
2013-04-04 10:05:00,40.9,18.5,30.39,NNW,345,2.0,5.0,40,0.00,,---,0.00,VWS V14.01,2013-04-04 14:05:00,
2013-04-04 10:10:00,41.4,18.3,30.39,WSW,257,1.0,7.0,39,0.00,,---,0.00,VWS V14.01,2013-04-04 14:10:00,
2013-04-04 10:15:00,41.7,18.6,30.39,NW,311,3.0,8.0,39,0.00,,---,0.00,VWS V14.01,2013-04-04 14:15:00,
2013-04-04 10:20:00,41.9,18.2,30.39,North,359,2.0,8.0,38,0.00,,---,0.00,VWS V14.01,2013-04-04 14:20:00,
2013-04-04 10:25:00,42.2,17.8,30.39,WSW,243,0.0,8.0,37,0.00,,---,0.00,VWS V14.01,2013-04-04 14:25:00,
2013-04-04 10:30:00,43.1,18.6,30.39,NW,323,3.0,8.0,37,0.00,,---,0.00,VWS V14.01,2013-04-04 14:30:00,
2013-04-04 10:35:00,43.3,18.2,30.38,WNW,296,1.0,2.0,36,0.00,,---,0.00,VWS V14.01,2013-04-04 14:35:00,
2013-04-04 10:40:00,44.2,19.0,30.38,ENE,74,0.0,4.0,36,0.00,,---,0.00,VWS V14.01,2013-04-04 14:40:00,
2013-04-04 10:45:00,43.9,18.0,30.38,NNE,31,0.0,5.0,35,0.00,,---,0.00,VWS V14.01,2013-04-04 14:45:00,
2013-04-04 10:50:00,43.9,18.7,30.38,ENE,75,2.0,6.0,36,0.00,,---,0.00,VWS V14.01,2013-04-04 14:50:00,
2013-04-04 10:55:00,44.0,18.1,30.37,West,261,0.0,6.0,35,0.00,,---,0.00,VWS V14.01,2013-04-04 14:55:00,
2013-04-04 11:00:00,43.8,19.9,30.37,East,101,2.0,6.0,38,0.00,,---,0.00,VWS V14.01,2013-04-04 15:00:00,
2013-04-04 11:05:00,43.9,19.3,30.37,ESE,114,3.0,4.0,37,0.00,,---,0.00,VWS V14.01,2013-04-04 15:05:00,
2013-04-04 11:10:00,43.7,20.4,30.37,ENE,58,4.0,4.0,39,0.00,,---,0.00,VWS V14.01,2013-04-04 15:10:00,
2013-04-04 11:15:00,43.2,20.5,30.37,East,84,3.0,5.0,40,0.00,,---,0.00,VWS V14.01,2013-04-04 15:15:00,
2013-04-04 11:20:00,43.0,22.0,30.37,North,5,3.0,5.0,43,0.00,,---,0.00,VWS V14.01,2013-04-04 15:20:00,
2013-04-04 11:25:00,42.9,21.4,30.37,SSW,201,3.0,5.0,42,0.00,,---,0.00,VWS V14.01,2013-04-04 15:25:00,
2013-04-04 11:30:00,43.1,21.0,30.37,North,8,2.0,5.0,41,0.00,,---,0.00,VWS V14.01,2013-04-04 15:30:00,
2013-04-04 11:35:00,42.9,22.0,30.37,NE,37,1.0,5.0,43,0.00,,---,0.00,VWS V14.01,2013-04-04 15:35:00,
2013-04-04 11:40:00,43.4,20.7,30.37,SSW,208,1.0,5.0,40,0.00,,---,0.00,VWS V14.01,2013-04-04 15:40:00,
2013-04-04 11:45:00,44.0,21.2,30.36,SSE,155,3.0,5.0,40,0.00,,---,0.00,VWS V14.01,2013-04-04 15:45:00,
2013-04-04 11:50:00,44.0,20.6,30.36,South,170,4.0,7.0,39,0.00,,---,0.00,VWS V14.01,2013-04-04 15:50:00,
2013-04-04 11:55:00,44.1,22.5,30.36,SSE,148,3.0,7.0,42,0.00,,---,0.00,VWS V14.01,2013-04-04 15:55:00,
2013-04-04 12:00:00,44.3,22.1,30.36,SSE,147,4.0,7.0,41,0.00,,---,0.00,VWS V14.01,2013-04-04 16:00:00,
2013-04-04 12:05:00,44.3,23.2,30.36,SE,130,4.0,7.0,43,0.00,,---,0.00,VWS V14.01,2013-04-04 16:05:00,
2013-04-04 12:10:00,44.0,23.0,30.35,SE,128,5.0,7.0,43,0.00,,---,0.00,VWS V14.01,2013-04-04 16:10:00,
2013-04-04 12:15:00,43.9,22.9,30.35,WSW,250,2.0,7.0,43,0.00,,---,0.00,VWS V14.01,2013-04-04 16:15:00,
2013-04-04 12:20:00,43.6,22.6,30.35,SSE,147,6.0,7.0,43,0.00,,---,0.00,VWS V14.01,2013-04-04 16:20:00,
2013-04-04 12:25:00,43.2,21.7,30.34,SSW,200,7.0,9.0,42,0.00,,---,0.00,VWS V14.01,2013-04-04 16:25:00,
2013-04-04 12:30:00,42.6,22.2,30.35,ESE,122,10.0,10.0,44,0.00,,---,0.00,VWS V14.01,2013-04-04 16:30:00,
2013-04-04 12:35:00,41.9,22.1,30.35,SE,141,6.0,10.0,45,0.00,,---,0.00,VWS V14.01,2013-04-04 16:35:00,
2013-04-04 12:40:00,42.1,22.8,30.35,SE,138,9.0,11.0,46,0.00,,---,0.00,VWS V14.01,2013-04-04 16:40:00,
2013-04-04 12:46:00,42.0,24.2,30.34,ESE,121,11.0,12.0,49,0.00,,---,0.00,VWS V14.01,2013-04-04 16:46:00,
2013-04-04 12:50:00,42.1,23.8,30.34,SE,127,10.0,12.0,48,0.00,,---,0.00,VWS V14.01,2013-04-04 16:50:00,
2013-04-04 12:55:00,42.3,24.5,30.34,ESE,113,11.0,12.0,49,0.00,,---,0.00,VWS V14.01,2013-04-04 16:55:00,
2013-04-04 13:01:00,42.6,23.3,30.34,SE,136,8.0,10.0,46,0.00,,---,0.00,VWS V14.01,2013-04-04 17:01:00,
2013-04-04 13:06:00,42.6,24.8,30.33,SE,136,6.0,14.0,49,0.00,,---,0.00,VWS V14.01,2013-04-04 17:06:00,
2013-04-04 13:11:00,42.7,22.9,30.33,WSW,246,11.0,14.0,45,0.00,,---,0.00,VWS V14.01,2013-04-04 17:11:00,
2013-04-04 13:16:00,42.5,24.2,30.33,SW,235,4.0,14.0,48,0.00,,---,0.00,VWS V14.01,2013-04-04 17:16:00,
2013-04-04 13:21:00,43.6,25.2,30.33,WSW,250,7.0,17.0,48,0.00,,---,0.00,VWS V14.01,2013-04-04 17:21:00,
2013-04-04 13:26:00,43.5,24.1,30.32,East,83,5.0,17.0,46,0.00,,---,0.00,VWS V14.01,2013-04-04 17:26:00,
2013-04-04 13:31:00,43.1,23.7,30.32,SE,146,4.0,11.0,46,0.00,,---,0.00,VWS V14.01,2013-04-04 17:31:00,
2013-04-04 13:36:00,42.8,24.0,30.32,South,169,12.0,16.0,47,0.00,,---,0.00,VWS V14.01,2013-04-04 17:36:00,
2013-04-04 13:41:00,42.4,24.1,30.31,SSE,159,8.0,16.0,48,0.00,,---,0.00,VWS V14.01,2013-04-04 17:41:00,
2013-04-04 13:46:00,42.4,24.6,30.31,SW,217,4.0,16.0,49,0.00,,---,0.00,VWS V14.01,2013-04-04 17:46:00,
2013-04-04 13:51:00,42.3,24.0,30.31,South,179,8.0,16.0,48,0.00,,---,0.00,VWS V14.01,2013-04-04 17:51:00,
2013-04-04 13:56:00,41.9,24.1,30.31,SSE,150,8.0,16.0,49,0.00,,---,0.00,VWS V14.01,2013-04-04 17:56:00,
2013-04-04 14:01:00,41.5,25.2,30.30,ESE,110,8.0,12.0,52,0.00,,---,0.00,VWS V14.01,2013-04-04 18:01:00,
2013-04-04 14:06:00,41.7,25.4,30.29,WSW,243,10.0,13.0,52,0.00,,---,0.00,VWS V14.01,2013-04-04 18:06:00,
2013-04-04 14:12:00,41.6,25.8,30.29,NNE,28,10.0,13.0,53,0.00,,---,0.00,VWS V14.01,2013-04-04 18:12:00,
2013-04-04 14:17:00,41.8,25.5,30.29,SW,221,5.0,13.0,52,0.00,,---,0.00,VWS V14.01,2013-04-04 18:17:00,
2013-04-04 14:22:00,42.8,26.9,30.28,SSE,167,7.0,13.0,53,0.00,,---,0.00,VWS V14.01,2013-04-04 18:22:00,
2013-04-04 14:27:00,43.2,25.8,30.28,South,180,2.0,13.0,50,0.00,,---,0.00,VWS V14.01,2013-04-04 18:27:00,
2013-04-04 14:32:00,43.6,27.1,30.28,SW,223,4.0,9.0,52,0.00,,---,0.00,VWS V14.01,2013-04-04 18:32:00,
2013-04-04 14:37:00,43.5,26.1,30.28,East,87,6.0,10.0,50,0.00,,---,0.00,VWS V14.01,2013-04-04 18:37:00,
2013-04-04 14:42:00,43.3,25.9,30.28,NW,321,4.0,10.0,50,0.00,,---,0.00,VWS V14.01,2013-04-04 18:42:00,
2013-04-04 14:47:00,43.1,26.2,30.28,SE,143,5.0,11.0,51,0.00,,---,0.00,VWS V14.01,2013-04-04 18:47:00,
2013-04-04 14:52:00,43.1,26.7,30.27,WNW,287,4.0,11.0,52,0.00,,---,0.00,VWS V14.01,2013-04-04 18:52:00,
2013-04-04 14:57:00,43.2,27.2,30.27,South,187,6.0,11.0,53,0.00,,---,0.00,VWS V14.01,2013-04-04 18:57:00,
2013-04-04 15:02:00,43.1,26.2,30.27,South,173,8.0,14.0,51,0.00,,---,0.00,VWS V14.01,2013-04-04 19:02:00,
2013-04-04 15:07:00,43.2,27.2,30.27,SSW,200,7.0,14.0,53,0.00,,---,0.00,VWS V14.01,2013-04-04 19:07:00,
2013-04-04 15:12:00,43.3,27.3,30.27,South,186,13.0,14.0,53,0.00,,---,0.00,VWS V14.01,2013-04-04 19:12:00,
2013-04-04 15:17:00,43.2,27.2,30.26,WSW,238,6.0,14.0,53,0.00,,---,0.00,VWS V14.01,2013-04-04 19:17:00,
2013-04-04 15:22:00,42.7,26.3,30.26,ESE,113,12.0,14.0,52,0.00,,---,0.00,VWS V14.01,2013-04-04 19:22:00,
2013-04-04 15:27:00,42.4,26.5,30.25,NE,41,13.0,16.0,53,0.00,,---,0.00,VWS V14.01,2013-04-04 19:27:00,
2013-04-04 15:32:00,42.3,27.7,30.25,SW,215,8.0,12.0,56,0.00,,---,0.00,VWS V14.01,2013-04-04 19:32:00,
2013-04-04 15:37:00,42.7,27.7,30.25,SSE,147,5.0,15.0,55,0.00,,---,0.00,VWS V14.01,2013-04-04 19:37:00,
2013-04-04 15:42:00,43.0,27.0,30.25,East,82,10.0,15.0,53,0.00,,---,0.00,VWS V14.01,2013-04-04 19:42:00,
2013-04-04 15:47:00,43.2,27.2,30.25,SSW,203,11.0,15.0,53,0.00,,---,0.00,VWS V14.01,2013-04-04 19:47:00,
2013-04-04 15:52:00,42.6,27.6,30.25,NNW,347,6.0,15.0,55,0.00,,---,0.00,VWS V14.01,2013-04-04 19:52:00,
2013-04-04 15:57:00,42.5,27.0,30.25,South,185,6.0,15.0,54,0.00,,---,0.00,VWS V14.01,2013-04-04 19:57:00,
2013-04-04 16:03:00,42.1,27.1,30.25,East,96,6.0,15.0,55,0.00,,---,0.00,VWS V14.01,2013-04-04 20:03:00,
2013-04-04 16:08:00,42.6,28.9,30.25,ESE,109,9.0,15.0,58,0.00,,---,0.00,VWS V14.01,2013-04-04 20:08:00,
2013-04-04 16:13:00,42.6,27.6,30.25,ENE,60,9.0,15.0,55,0.00,,---,0.00,VWS V14.01,2013-04-04 20:13:00,
2013-04-04 16:18:00,42.5,28.4,30.24,South,172,11.0,15.0,57,0.00,,---,0.00,VWS V14.01,2013-04-04 20:18:00,
2013-04-04 16:23:00,42.2,27.6,30.24,WNW,288,11.0,18.0,56,0.00,,---,0.00,VWS V14.01,2013-04-04 20:23:00,
2013-04-04 16:28:00,42.1,27.5,30.24,South,189,8.0,18.0,56,0.00,,---,0.00,VWS V14.01,2013-04-04 20:28:00,
2013-04-04 16:33:00,42.2,28.1,30.24,WSW,250,5.0,14.0,57,0.00,,---,0.00,VWS V14.01,2013-04-04 20:33:00,
2013-04-04 16:38:00,42.1,28.4,30.24,WNW,287,7.0,14.0,58,0.00,,---,0.00,VWS V14.01,2013-04-04 20:38:00,
2013-04-04 16:43:00,41.9,28.2,30.24,South,182,8.0,14.0,58,0.00,,---,0.00,VWS V14.01,2013-04-04 20:43:00,
2013-04-04 16:48:00,41.9,29.0,30.23,SSW,212,6.0,14.0,60,0.00,,---,0.00,VWS V14.01,2013-04-04 20:48:00,
2013-04-04 16:53:00,41.8,27.7,30.23,SE,126,12.0,14.0,57,0.00,,---,0.00,VWS V14.01,2013-04-04 20:53:00,
2013-04-04 16:58:00,41.6,27.9,30.24,West,264,6.0,14.0,58,0.00,,---,0.00,VWS V14.01,2013-04-04 20:58:00,
2013-04-04 17:03:00,41.3,28.1,30.23,ESE,120,11.0,15.0,59,0.00,,---,0.00,VWS V14.01,2013-04-04 21:03:00,
2013-04-04 17:08:00,41.2,28.8,30.23,West,276,6.0,15.0,61,0.00,,---,0.00,VWS V14.01,2013-04-04 21:08:00,
2013-04-04 17:13:00,41.3,29.7,30.23,ENE,70,9.0,18.0,63,0.00,,---,0.00,VWS V14.01,2013-04-04 21:13:00,
2013-04-04 17:18:00,41.3,29.7,30.23,ESE,117,11.0,18.0,63,0.00,,---,0.00,VWS V14.01,2013-04-04 21:18:00,
2013-04-04 17:23:00,41.4,29.8,30.23,SW,221,9.0,18.0,63,0.00,,---,0.00,VWS V14.01,2013-04-04 21:23:00,
2013-04-04 17:28:00,41.6,30.0,30.23,SSE,154,4.0,18.0,63,0.00,,---,0.00,VWS V14.01,2013-04-04 21:28:00,
2013-04-04 17:33:00,41.7,30.0,30.23,SSW,210,11.0,13.0,63,0.00,,---,0.00,VWS V14.01,2013-04-04 21:33:00,
2013-04-04 17:38:00,41.4,30.1,30.23,SW,224,5.0,15.0,64,0.00,,---,0.00,VWS V14.01,2013-04-04 21:38:00,
2013-04-04 17:43:00,41.1,30.2,30.23,SE,124,9.0,15.0,65,0.00,,---,0.00,VWS V14.01,2013-04-04 21:43:00,
2013-04-04 17:48:00,40.9,28.9,30.23,NW,313,7.0,17.0,62,0.00,,---,0.00,VWS V14.01,2013-04-04 21:48:00,
2013-04-04 17:53:00,40.8,29.6,30.23,ESE,112,10.0,17.0,64,0.00,,---,0.00,VWS V14.01,2013-04-04 21:53:00,
2013-04-04 17:58:00,40.7,29.5,30.23,WSW,249,6.0,17.0,64,0.00,,---,0.00,VWS V14.01,2013-04-04 21:58:00,
2013-04-04 18:03:00,40.7,30.2,30.24,South,188,5.0,14.0,66,0.00,,---,0.00,VWS V14.01,2013-04-04 22:03:00,
2013-04-04 18:08:00,40.7,29.9,30.23,NE,51,5.0,18.0,65,0.00,,---,0.00,VWS V14.01,2013-04-04 22:08:00,
2013-04-04 18:13:00,40.7,29.9,30.23,SSE,158,7.0,18.0,65,0.00,,---,0.00,VWS V14.01,2013-04-04 22:13:00,
2013-04-04 18:18:00,40.6,30.9,30.23,NW,304,6.0,18.0,68,0.00,,---,0.00,VWS V14.01,2013-04-04 22:18:00,
2013-04-04 18:23:00,40.6,30.9,30.23,SW,235,6.0,18.0,68,0.00,,---,0.00,VWS V14.01,2013-04-04 22:23:00,
2013-04-04 18:28:00,40.6,30.9,30.23,WSW,254,9.0,18.0,68,0.00,,---,0.00,VWS V14.01,2013-04-04 22:28:00,
2013-04-04 18:33:00,40.6,30.1,30.23,South,177,6.0,14.0,66,0.00,,---,0.00,VWS V14.01,2013-04-04 22:33:00,
2013-04-04 18:38:00,40.5,30.4,30.23,SW,215,11.0,17.0,67,0.00,,---,0.00,VWS V14.01,2013-04-04 22:38:00,
2013-04-04 18:43:00,40.6,30.9,30.23,SE,143,8.0,17.0,68,0.00,,---,0.00,VWS V14.01,2013-04-04 22:43:00,
2013-04-04 18:48:00,40.7,31.0,30.23,SSE,155,14.0,17.0,68,0.00,,---,0.00,VWS V14.01,2013-04-04 22:48:00,
2013-04-04 18:53:00,40.8,31.8,30.23,SE,134,9.0,17.0,70,0.00,,---,0.00,VWS V14.01,2013-04-04 22:53:00,
2013-04-04 18:58:00,40.8,32.1,30.22,West,260,7.0,17.0,71,0.00,,---,0.00,VWS V14.01,2013-04-04 22:58:00,
2013-04-04 19:03:00,40.8,31.4,30.22,WSW,253,11.0,16.0,69,0.00,,---,0.00,VWS V14.01,2013-04-04 23:03:00,
2013-04-04 19:08:00,40.8,31.4,30.21,WNW,303,6.0,16.0,69,0.00,,---,0.00,VWS V14.01,2013-04-04 23:08:00,
2013-04-04 19:13:00,40.8,31.8,30.21,SSW,198,7.0,16.0,70,0.00,,---,0.00,VWS V14.01,2013-04-04 23:13:00,
2013-04-04 19:18:00,40.8,31.8,30.20,West,262,6.0,16.0,70,0.00,,---,0.00,VWS V14.01,2013-04-04 23:18:00,
2013-04-04 19:23:00,40.8,32.1,30.20,East,97,6.0,16.0,71,0.00,,---,0.00,VWS V14.01,2013-04-04 23:23:00,
2013-04-04 19:28:00,40.8,32.5,30.20,North,356,6.0,16.0,72,0.00,,---,0.00,VWS V14.01,2013-04-04 23:28:00,
2013-04-04 19:33:00,40.8,32.1,30.19,South,183,4.0,11.0,71,0.00,,---,0.00,VWS V14.01,2013-04-04 23:33:00,
2013-04-04 19:38:00,40.9,32.6,30.19,NNE,31,5.0,12.0,72,0.00,,---,0.00,VWS V14.01,2013-04-04 23:38:00,
2013-04-04 19:43:00,40.9,32.9,30.19,West,275,7.0,12.0,73,0.00,,---,0.00,VWS V14.01,2013-04-04 23:43:00,
2013-04-04 19:48:00,40.9,32.6,30.19,SSW,212,6.0,13.0,72,0.00,,---,0.00,VWS V14.01,2013-04-04 23:48:00,
2013-04-04 19:53:00,41.0,33.4,30.19,SSW,207,10.0,13.0,74,0.00,,---,0.00,VWS V14.01,2013-04-04 23:53:00,
2013-04-04 19:58:00,41.0,33.0,30.19,SW,215,8.0,13.0,73,0.00,,---,0.00,VWS V14.01,2013-04-04 23:58:00,
2013-04-04 20:04:00,41.1,33.1,30.19,North,359,5.0,11.0,73,0.00,,---,0.00,VWS V14.01,2013-04-05 00:04:00,
2013-04-04 20:09:00,41.1,32.8,30.18,West,280,4.0,13.0,72,0.00,,---,0.00,VWS V14.01,2013-04-05 00:09:00,
2013-04-04 20:14:00,41.1,33.5,30.18,SW,222,9.0,13.0,74,0.00,,---,0.00,VWS V14.01,2013-04-05 00:14:00,
2013-04-04 20:19:00,41.1,33.5,30.18,SW,229,6.0,14.0,74,0.00,,---,0.00,VWS V14.01,2013-04-05 00:19:00,
2013-04-04 20:24:00,41.1,33.1,30.18,ENE,65,4.0,14.0,73,0.00,,---,0.00,VWS V14.01,2013-04-05 00:24:00,
2013-04-04 20:29:00,41.2,33.5,30.18,SW,236,5.0,14.0,74,0.00,,---,0.00,VWS V14.01,2013-04-05 00:29:00,
2013-04-04 20:34:00,41.3,34.0,30.18,South,171,10.0,14.0,75,0.00,,---,0.00,VWS V14.01,2013-04-05 00:34:00,
2013-04-04 20:39:00,41.3,33.7,30.19,WNW,294,9.0,14.0,74,0.00,,---,0.00,VWS V14.01,2013-04-05 00:39:00,
2013-04-04 20:44:00,41.3,33.7,30.18,SW,226,8.0,14.0,74,0.00,,---,0.00,VWS V14.01,2013-04-05 00:44:00,
2013-04-04 20:49:00,41.3,33.7,30.18,WSW,243,5.0,14.0,74,0.00,,---,0.00,VWS V14.01,2013-04-05 00:49:00,
2013-04-04 20:54:00,41.3,34.0,30.18,South,175,8.0,14.0,75,0.00,,---,0.00,VWS V14.01,2013-04-05 00:54:00,
2013-04-04 20:59:00,41.3,34.0,30.18,East,96,7.0,14.0,75,0.00,,---,0.00,VWS V14.01,2013-04-05 00:59:00,
2013-04-04 21:04:00,41.4,34.4,30.17,SW,235,7.0,12.0,76,0.00,,---,0.00,VWS V14.01,2013-04-05 01:04:00,
2013-04-04 21:09:00,41.4,34.1,30.17,WSW,255,6.0,17.0,75,0.00,,---,0.00,VWS V14.01,2013-04-05 01:09:00,
2013-04-04 21:14:00,41.4,34.1,30.17,West,276,3.0,17.0,75,0.00,,---,0.00,VWS V14.01,2013-04-05 01:14:00,
2013-04-04 21:19:00,41.4,34.1,30.17,SW,234,9.0,17.0,75,0.00,,---,0.00,VWS V14.01,2013-04-05 01:19:00,
2013-04-04 21:24:00,41.4,34.4,30.16,SW,230,5.0,17.0,76,0.00,,---,0.00,VWS V14.01,2013-04-05 01:24:00,
2013-04-04 21:29:00,41.5,34.5,30.16,South,175,3.0,17.0,76,0.00,,---,0.00,VWS V14.01,2013-04-05 01:29:00,
2013-04-04 21:34:00,41.5,34.8,30.16,West,262,5.0,10.0,77,0.00,,---,0.00,VWS V14.01,2013-04-05 01:34:00,
2013-04-04 21:39:00,41.5,34.8,30.15,SE,146,3.0,10.0,77,0.00,,---,0.00,VWS V14.01,2013-04-05 01:39:00,
2013-04-04 21:44:00,41.5,34.8,30.15,SSE,162,3.0,10.0,77,0.00,,---,0.00,VWS V14.01,2013-04-05 01:44:00,
2013-04-04 21:49:00,41.5,34.8,30.15,South,186,5.0,10.0,77,0.00,,---,0.00,VWS V14.01,2013-04-05 01:49:00,
2013-04-04 21:55:00,41.5,34.8,30.15,West,264,4.0,10.0,77,0.00,,---,0.00,VWS V14.01,2013-04-05 01:55:00,
2013-04-04 22:00:00,41.6,34.9,30.15,South,179,5.0,10.0,77,0.00,,---,0.00,VWS V14.01,2013-04-05 02:00:00,
2013-04-04 22:05:00,41.5,34.8,30.15,WSW,243,7.0,9.0,77,0.00,,---,0.00,VWS V14.01,2013-04-05 02:05:00,
2013-04-04 22:10:00,41.5,34.8,30.14,SSE,155,2.0,9.0,77,0.00,,---,0.00,VWS V14.01,2013-04-05 02:10:00,
2013-04-04 22:15:00,41.5,34.8,30.14,ENE,77,3.0,9.0,77,0.00,,---,0.00,VWS V14.01,2013-04-05 02:15:00,
2013-04-04 22:20:00,41.5,35.2,30.14,WNW,287,4.0,9.0,78,0.00,,---,0.00,VWS V14.01,2013-04-05 02:20:00,
2013-04-04 22:25:00,41.5,34.5,30.14,West,261,2.0,9.0,76,0.00,,---,0.00,VWS V14.01,2013-04-05 02:25:00,
2013-04-04 22:30:00,41.5,34.8,30.14,SW,222,3.0,9.0,77,0.00,,---,0.00,VWS V14.01,2013-04-05 02:30:00,
2013-04-04 22:35:00,41.5,34.5,30.14,SE,131,5.0,9.0,76,0.00,,---,0.00,VWS V14.01,2013-04-05 02:35:00,
2013-04-04 22:40:00,41.5,34.8,30.13,SW,231,3.0,9.0,77,0.00,,---,0.00,VWS V14.01,2013-04-05 02:40:00,
2013-04-04 22:45:00,41.5,34.8,30.14,SW,224,4.0,9.0,77,0.00,,---,0.00,VWS V14.01,2013-04-05 02:45:00,
2013-04-04 22:50:00,41.5,34.5,30.14,SSW,196,4.0,12.0,76,0.00,,---,0.00,VWS V14.01,2013-04-05 02:50:00,
2013-04-04 22:55:00,41.5,34.5,30.14,ENE,63,8.0,12.0,76,0.00,,---,0.00,VWS V14.01,2013-04-05 02:55:00,
2013-04-04 23:00:00,41.6,35.3,30.13,SE,140,2.0,5.0,78,0.00,,---,0.00,VWS V14.01,2013-04-05 03:00:00,
2013-04-04 23:05:00,41.5,34.8,30.13,ESE,104,5.0,8.0,77,0.00,,---,0.00,VWS V14.01,2013-04-05 03:05:00,
2013-04-04 23:10:00,41.5,34.8,30.13,NE,39,4.0,8.0,77,0.00,,---,0.00,VWS V14.01,2013-04-05 03:10:00,
2013-04-04 23:15:00,41.5,35.2,30.13,NE,36,4.0,8.0,78,0.00,,---,0.00,VWS V14.01,2013-04-05 03:15:00,
2013-04-04 23:20:00,41.5,34.8,30.12,West,274,5.0,9.0,77,0.00,,---,0.00,VWS V14.01,2013-04-05 03:20:00,
2013-04-04 23:25:00,41.5,35.2,30.12,ESE,117,5.0,9.0,78,0.00,,---,0.00,VWS V14.01,2013-04-05 03:25:00,
2013-04-04 23:30:00,41.5,34.8,30.12,West,266,6.0,6.0,77,0.00,,---,0.00,VWS V14.01,2013-04-05 03:30:00,
2013-04-04 23:35:00,41.5,35.2,30.12,WSW,240,4.0,8.0,78,0.00,,---,0.00,VWS V14.01,2013-04-05 03:35:00,
2013-04-04 23:40:00,41.6,35.6,30.12,NW,324,5.0,9.0,79,0.00,,---,0.00,VWS V14.01,2013-04-05 03:40:00,
2013-04-04 23:45:00,41.6,34.9,30.12,SSW,202,5.0,9.0,77,0.00,,---,0.00,VWS V14.01,2013-04-05 03:45:00,
2013-04-04 23:50:00,41.7,35.7,30.11,SE,129,3.0,9.0,79,0.00,,---,0.00,VWS V14.01,2013-04-05 03:50:00,
2013-04-04 23:55:00,41.7,36.0,30.11,NE,44,6.0,9.0,80,0.00,,---,0.00,VWS V14.01,2013-04-05 03:55:00,